www.pogodaiklimat.ru
ПОГОДА в Оватонне
Время
и дата
00:33 23.05
00:53 23.05
01:13 23.05
01:33 23.05
01:53 23.05
02:13 23.05
02:33 23.05
02:53 23.05
03:13 23.05
03:33 23.05
03:53 23.05
04:13 23.05
04:33 23.05
04:53 23.05
05:13 23.05
05:33 23.05
05:53 23.05
06:13 23.05
06:33 23.05
06:53 23.05
07:13 23.05
07:33 23.05
07:53 23.05
08:13 23.05
08:33 23.05
08:53 23.05
09:13 23.05
09:33 23.05
09:53 23.05
10:13 23.05
10:33 23.05
10:53 23.05
11:13 23.05
11:33 23.05
11:53 23.05
12:13 23.05
12:33 23.05
12:53 23.05
13:13 23.05
13:33 23.05
13:53 23.05
14:13 23.05
14:33 23.05
14:53 23.05
15:13 23.05
15:33 23.05
15:53 23.05
16:13 23.05
Ветер
(напр.,м/с)
Видим. Явления Облачность Т
(С)
Тd
(С)
f
(%)
Тe
(С)
Тes
(С)
Комфортность P
(гПа)
Po
(гПа)
Тmin
(С)
Tmax
(С)
R
(мм)
R24
(мм)
S
(см)
Ю 2 16 км ясно +6.0 +1.0 70 +2 +2 987.4
ЮВ 1 16 км ясно +6.0 +1.0 70 +3 +3 987.4
ЮВ 1 16 км ясно +6.0 +1.0 70 +3 +3 987.4
ЮВ 1 16 км ясно +5.0 +1.0 75 +2 +2 987.4
ЮВ 1 16 км ясно +4.0 0.0 75 0 0 987.4
Ю 2 16 км ясно +5.0 0.0 70 +1 +1 987.4
ЮВ 1 16 км ясно +5.0 +1.0 75 +2 +2 987.4
ЮВ 1 16 км ясно +5.0 0.0 70 +2 +2 987.1
ЮВ 1 16 км ясно +4.0 0.0 75 +1 +1 987.4
штиль 0 16 км ясно +2.0 -1.0 80 +1 +1 987.4
ЮВ 1 16 км ясно +4.0 0.0 75 0 0 987.1
ЮВ 1 16 км ясно +4.0 0.0 75 0 0 987.1
ЮВ 1 16 км ясно +4.0 0.0 75 0 0 986.7
ЮВ 1 16 км ясно +4.0 0.0 75 0 0 986.7
ЮВ 1 16 км ясно +4.0 0.0 75 0 0 986.7
ЮВ 1 16 км ясно +5.0 +1.0 75 +2 +2 986.7
ЮВ 1 16 км ясно +6.0 +1.0 70 +4 +4 987.1
ЮВ 1 16 км ясно +7.0 +1.0 66 +5 +6 987.1
ЮВ 1 16 км ясно +9.0 +2.0 61 +7 +8 987.1
Ю 1 16 км 5/0 3300 м
[Ac]
+11.0 +2.0 54 +10 +11 987.1
Ю 1 16 км 5/0 3600 м
[Ac]
+11.0 +1.0 50 +10 +11 987.1
Ю 1 16 км ясно +12.0 +1.0 47 +11 +14 987.1
ЮВ 1 16 км ясно +12.0 +1.0 47 +11 +14 987.1
ЮВ 1 16 км н/о +13.0 +1.0 44 +12 +12 987.1
ЮВ 1 16 км н/о +13.0 +1.0 44 +13 +13 987.1
ЮВ 1 16 км н/о +14.0 +1.0 41 +13 +13 987.1
Ю 1 16 км н/о +14.0 0.0 38 +13 +13 986.7
Ю 1 16 км н/о +14.0 +1.0 41 +13 +13 987.1
С 1 16 км н/о +14.0 0.0 38 +14 +14 986.7
Ю 1 16 км н/о +14.0 -1.0 36 +14 +14 986.4
В 2 16 км н/о +15.0 +1.0 39 +14 +14 986.1
В 1 16 км н/о +15.0 +1.0 39 +15 +15 986.1
В 1 16 км н/о +15.0 +1.0 39 +15 +15 985.8
СВ 1 16 км н/о +15.0 0.0 36 +15 +15 985.4
ЮВ 1 16 км н/о +16.0 +1.0 36 +16 +16 985.4
СВ 1 16 км н/о +16.0 +2.0 39 +16 +16 985.1
штиль 0 16 км н/о +16.0 +1.0 36 +16 +16 984.8
В 1 16 км н/о +16.0 +1.0 36 +16 +16 984.5
ЮВ 2 16 км н/о +16.0 +1.0 36 +15 +15 984.1
В 1 16 км н/о +16.0 +1.0 36 +16 +16 984.1
ЮВ 1 16 км н/о +16.0 +1.0 36 +16 +16 983.8
ЮВ 1 16 км н/о +17.0 +1.0 34 +17 +17 983.5
штиль 0 16 км н/о +17.0 +1.0 34 +17 +17 983.5
ЮВ 2
{3}
16 км н/о +17.0 +2.0 36 +17 +17 983.5
В 2 16 км н/о +17.0 +2.0 36 +17 +17 983.2
СВ 1 16 км ясно +17.0 +1.0 34 +17 +27 983.2
В 2 16 км н/о +17.0 +2.0 36 +17 +17 982.8
В 1 16 км н/о +17.0 +2.0 36 +17 +17 982.8
Местоположение метеостанции Owatonna Degner Regional Airport: широта 44.1191 долгота -93.2569 высота над уровнем моря 344 м.
В архиве по умолчанию представлена погода в Оватонне за последние 1-2 суток. Обновление информации о фактической погоде в базе происходит ежечасно! Архивные данные за месяц целиком и за предыдущие месяцы Вы можете получить, выбрав интересующий диапазон дат из раскрывающегося списка и нажав кнопку "Ввод!".
Внимание! Архив погоды МЕТАР в базе сайта по станциям, не включенным в климатический монитор, хранится не более 60 дней. Нет смысла пытаться выбрать более раннюю дату.
*Определитесь, кто Вы:
Внимание! Время в таблицах - местное (без учета летнего времени). Для получения всемирного времени необходимо вычесть поправку, которая равна -6 ч.
Смотрите также архив погоды в соседних городах и на ближайших метеорологических станциях:
Партнеры нашего сайта:      
Пояснения к столбцам:
  • Ветер - указаны скорость ветра в м/с - средняя за 10 мин, порывы в срок и между сроками (в фигурных скобках) и направление, откуда дует ветер: С - северный,
  • СВ - северо-восточный, В - восточный, ЮВ - юго-восточный, Ю - южный, ЮЗ - юго-западный, З - западный, СЗ - северо-западный.
  • Видимость - горизонтальная дальность видимости в метрах или километрах. При видимости от 1 до 10 км при отсутствии осадков обычно наблюдается дымка, при ухудшении видимости до 1 км и менее - туман. В сухую погоду видимость может ухудшаться дымом, пылью или мглою.
  • Явления - указаны атмосферные явления, наблюдавшиеся в срок или в последний час перед сроком; фигурными скобками обозначены явления, наблюдавшиеся между сроками (за 1-3 часа до срока); квадратными скобками обозначены град или гололедные отложения с указанием их диаметра в мм.
  • Облачность - указаны через наклонную черту общая и нижняя облачность в баллах и высота нижней границы облаков в метрах; квадратными скобками обозначены формы облаков: Ci - перистые, Cs - перисто-слоистые, Cc - перисто-кучевые, Ac - высококучевые, As - высокослоистые, Sc - слоисто-кучевые, Ns - слоисто-дождевые, Cu - кучевые, Cb - кучево-дождевые. Подробнее классификацию облаков см. в Атласе облаков (PDF).
  • T - Температура воздуха - температура, измеренная на высоте 2 м над землей.
  • Td - Температура точки росы - температура, при понижении до которой содержащийся в воздухе водяной пар достигнет насыщения.
  • f - Относительная влажность воздуха - влажноcть воздуха, измеренная на высоте 2 м над землей.
  • Te - Эффективная температура - температура, которую ощущает одетый по сезону человек в тени. Характеристика душности погоды. При расчете учитывается влияние влажности воздуха и скорости ветра на теплоощущения человека.
  • Tes - Эффективная температура на солнце - температура, которую ощущает человек, с поправкой на солнечный нагрев. Характеристика знойности погоды. Зависит от высоты солнца над горизонтом, облачности и скорости ветра. Ночью, в пасмурную погоду, а также при ветре 12 м/с и более поправка равна нулю.
  • P - Атмосферное давление - приведенное к уровню моря атмосферное давление.
  • Po - Атмосферное давление - измеренное на уровне метеостанции атмосферное давление.
  • Tmin - Минимальная температура - минимум температуры воздуха на высоте 2 м над землей.
  • Tmax - Максимальная температура - максимум температуры воздуха на высоте 2 м над землей.
  • R - Количество осадков - Количество выпавших осадков за период времени, мм. При наведении курсора мыши на число - период времени, за который выпало указанное количество осадков.
  • R24 - Количество осадков - Количество выпавших осадков за 24 часа, мм.
  • S - Снежный покров - Высота снежного покрова, см. При наведении курсора мыши на число - состояние снежного покрова и степень покрытия местности в баллах.